Location: Sternwarte ZA, Rosenfeld-Brittheim
(48.2889°N, 8.6789°E)
Time: 19:40:26
(UTC+02:00)

ISS - Pass Details

Date: 14 July 2019
Orbit: 409 x 418 km, 51.6° (Epoch: 20 July)

Event Time Altitude Azimuth Distance (km) Brightness Sun altitude
Rises 04:45:21 0° 291° (WNW) 2,346 -0.2 -7.6°
Reaches altitude 10° 04:47:26 10° 293° (WNW) 1,481 -1.2 -7.4°
Maximum altitude 04:50:46 80° 20° (NNE) 421 -3.7 -7.0°
Drops below altitude 10° 04:54:04 10° 108° (ESE) 1,473 -0.6 -6.6°
Sets 04:56:09 0° 110° (ESE) 2,332 0.4 -6.3°
